Home > Weather > Port Elizabeth > Past weeks

Flag for South Africa Past Weather in Port Elizabeth, South Africa — Yesterday and Last 2 Weeks

Now
64 °F

Passing clouds.


Feels Like: 64 °F
Forecast: 54 / 65 °F
Wind: 7 mph from Northwest

Location: Port Elizabeth Airport

Current Time: Jun 26, 2016 at 10:12:01 AM

Latest Report: Jun 26, 2016 at 9:00 AM


Visibility: N/A

Pressure: 30.07 "Hg

Humidity: 49%

Dew Point: 45 °F

Location of Port ElizabethLocation

Past Weather in Port Elizabeth — Graph

°F

Port Elizabeth Temperature Yesterday

Maximum temperature yesterday: 66 °F (at 12:00 PM)
Minimum temperature yesterday: 52 °F (at 8:00 PM)
Average temperature yesterday: 58 °F

High & Low Weather Summary for the Past Weeks

 TemperatureHumidityPressure
High77 °F (Jun 15, 2:00 PM)100% (Jun 15, 7:00 PM)30.63 "Hg (Jun 15, 7:00 PM)
Low39 °F (Jun 23, 4:00 AM)31% (Jun 23, 1:00 PM)29.83 "Hg (Jun 15, 1:00 PM)
Average56 °F73%30.17 "Hg
* Reported Jun 11 8:00 AM — Jun 26 8:00 AM, Port Elizabeth, Weather by CustomWeather, © 2016

Note: Actual official high and low records may vary slightly from our data, if they occured in-between our weather recording intervals... More about our weather records

Advertising

Port Elizabeth Weather History for the Previous 24 Hours

Scroll right to see more
 ConditionsComfort  
Time TempWeatherWind HumidityBarometerVisibility
8:00 AM
Sun, Jun 26
50 °FSunny.2 mph94%30.07 "Hg10 mi
7:00 AM50 °FSunny.5 mph94%30.07 "Hg10 mi
6:00 AM52 °FClear.8 mph88%30.07 "Hg10 mi
5:00 AM54 °FClear.7 mph94%30.09 "Hg10 mi
4:00 AM54 °FClear.5 mph94%30.12 "Hg10 mi
3:00 AM54 °FPassing clouds.7 mph88%30.12 "HgN/A
2:00 AM50 °FClear.6 mph94%30.15 "Hg10 mi
12:00 AM50 °FClear.3 mph94%30.18 "Hg6 mi
9:00 PM
Sat, Jun 25
52 °FClear.2 mph94%30.21 "Hg5 mi
8:00 PM52 °FClear.7 mph94%30.21 "Hg10 mi
7:00 PM54 °FClear.6 mph94%30.18 "Hg10 mi
6:00 PM57 °FClear.8 mph88%30.18 "Hg10 mi
5:00 PM61 °FClear.15 mph77%30.15 "Hg10 mi
4:00 PM63 °FSunny.17 mph73%30.15 "Hg10 mi
3:00 PM64 °FSunny.18 mph68%30.15 "Hg10 mi
2:00 PM64 °FSunny.22 mph64%30.15 "Hg10 mi
1:00 PM66 °FSunny.21 mph64%30.18 "Hg10 mi
12:00 PM66 °FSunny.16 mph60%30.18 "Hg10 mi
11:00 AM63 °FSunny.21 mph68%30.18 "Hg10 mi
10:00 AM61 °FPassing clouds.21 mph77%30.18 "HgN/A
Weather by CustomWeather, © 2016

See weather overviewHow to use our weather pages